Regional Weather Roundup
Issued by NWS

Home | Current Version | Previous Version | Text Only | Print | Product List | Glossary Off
Versions: 1 2 3 4 5 6 7 8 9 10 11 12 13 14 15 16 17 18 19 20 21 22 23 24 25 26 27 28 29 30 31 32 33 34 35 36 37 38 39 40 41 42 43 44 45 46 47 48 49 50

000
ASUS45 KABQ 011401
RWRNM
WEATHER ROUNDUP FOR NEW MEXICO
NATIONAL WEATHER SERVICE ALBUQUERQUE NM
700 AM MST SUN MAR 01 2015

NOTE: "FAIR" MEANS FEW OR NO CLOUDS BELOW 12,000 FEET AGL WITH NO
       SIGNIFICANT WEATHER OR OBSTRUCTIONS TO VISION.

      THIS PRODUCT IS RELEASED AS TWO VERSIONS.  ONE VERSION NEAR
      THE TOP OF THE HOUR CONTAINING PRELIMINARY DATA FROM ALBUQUERQUE
      AND OTHER STATIONS.  A FINAL VERSION WITH ADDITIONAL DATA IS
      ISSUED ABOUT 10 MINUTES AFTER THE HOUR.

NMZ501-503-504-510>518-011500-
NORTHWEST PLATEAU/NORTHCENTRAL MOUNTAINS

CITY           SKY/WX    TMP DP  RH WIND       PRES   REMARKS
FARMINGTON     CLOUDY    34  32  92 NE3       30.05R
SANTA FE       CLOUDY    35  32  88 E3        30.07R
TAOS           CLOUDY    32  28  86 SE5       30.10R WCI  27
ANGEL FIRE     CLOUDY    31  27  86 SW5         N/A  WCI  26

$$
NMZ402-403-502-505>509-011500-
WESTCENTRAL MOUNTAINS/SOUTHWEST MOUNTAINS

CITY           SKY/WX    TMP DP  RH WIND       PRES   REMARKS
GALLUP         LGT RAIN  39  36  89 SW12      30.04R WCI  32
SILVER CITY    CLEAR     36  34  93 NE8       30.12R WCI  29

$$
NMZ407-409-411-412-011500-
SOUTHERN DESERTS

CITY           SKY/WX    TMP DP  RH WIND       PRES   REMARKS
DEMING         CLEAR     39  34  82 CALM      30.09R
HOLLOMAN AFB   CLEAR     37  29  72 CALM      30.08R
ALAMOGORDO     CLEAR     43  32  65 S8        30.10R
T OR C         CLEAR     48  38  68 S9        30.06R

$$
NMZ519>523-011500-
CENTRAL VALLEYS/CENTRAL HIGHLANDS

CITY           SKY/WX    TMP DP  RH WIND       PRES   REMARKS
ALBUQUERQUE    MOCLDY    35  32  88 CALM      30.09R
DOUBLE EAGLE   CLOUDY    36  32  87 CALM      30.08R
MORIARTY ARPT  CLOUDY    34  32  90 E7        30.09R WCI  28
CLINES CORNERS PTCLDY    38  33  82 W17       30.07R WCI  28
BELEN          CLOUDY    33  32  94 CALM      30.09R
SOCORRO          N/A     34  32  91 NW6       30.09R WCI  29

$$
NMZ524>526-539-540-011500-
SOUTHCENTRAL MOUNTAINS

CITY           SKY/WX    TMP DP  RH WIND       PRES   REMARKS
RUIDOSO        NOT AVBL

$$
NMZ527>531-011500-
NORTHEAST HIGHLANDS/NORTHEAST PLAINS

CITY           SKY/WX    TMP DP  RH WIND       PRES   REMARKS
LAS VEGAS      PTCLDY    32  30  92 S15       30.04R WCI  22
RATON          FOG       24  22  91 NE12      30.04F VSB<1/4 WCI  13
CLAYTON        CLOUDY    23  21  92 N8        30.10R FOG     WCI  14

$$
NMZ532>537-011500-
EASTCENTRAL PLAINS

CITY           SKY/WX    TMP DP  RH WIND       PRES   REMARKS
TUCUMCARI      CLOUDY    27  25  92 SW6       30.13R WCI  20
CANNON AFB     FOG       27  27 100 SW10      30.14R VSB 1/2 WCI  17
CLOVIS AIRPORT CLOUDY    27  27 100 SW9       30.15R VSB 1/2 WCI  17

$$
NMZ028-029-538-011500-
SOUTHEAST PLAINS

CITY           SKY/WX    TMP DP  RH WIND       PRES   REMARKS
ROSWELL        CLOUDY    30  29  96 S3        30.17R FOG
ARTESIA        FOG       30  30 100 S8        30.18R VSB 1/4 WCI  23
CARLSBAD       CLOUDY    32  30  92 SE7       30.18R FOG     WCI  26
HOBBS          FOG       30  30 100 CALM      30.18R VSB 1/4


$$



USA.gov is the U.S. government's official web portal to all federal, state and local government web resources and services.